Find Starlink 2378

NORAD ID: 47916 Int'l Des: 2021-021 Owner: SPXS Country: US Constellation: starlink operational
LEOCIRCULAR

Live Position

Loading 3D Globe...

About Starlink 2378

Description loading...

Upcoming Passes

Passes for default location (London). Set your location on the main map for personalized predictions.

Altitude History

Loading altitude history...

Two-Line Element Set

1 47916U 21021BJ 26129.82151434 -.00000559 00000-0 -62341-5 0 9993
2 47916 53.1621 331.1666 0001317 90.6280 269.4872 15.31698070285777
Epoch: May 9, 2026 • Age: 7 hours

Current Status

Altitude 471.0 km
Velocity 7.63 km/s
Sub-Earth Point 22.87°N, 135.96°W
Launch Date Mar 14, 2021
Age 5.1 years
Type internet

Technical Details

Classification Payload
Mass 260.00 kg
Dry Mass 248.00 kg
Total Mass 260.00 kg
Length 0.20 m
Diameter 2.80 m
Span 9.00 m
Shape Box + pan
Manufacturer SPXS
Bus Type Starlink
Phase Status In Orbit
Owner/State SPXS/US

Most Searched